Location: Niverville
(49.6028°N, 97.0419°W)
Time: 03:40:39
(UTC-05:00)

Amateur Radio Satellites - All Passes

Search period start: 25 June 2016 03:10
Search period end: 26 June 2016 03:10
Location: Niverville, 49.6028°N, 97.0419°W

Satellite Date Start Highest point End Downlink Frequencies (MHz)
Time Altitude Azimuth
O/OREOS (USA 219) 25 Jun 03:20:07 03:22:26 14° 99° (E) 03:24:45 437.305
Cosmos 2504 25 Jun 03:25:32 03:34:00 51° 272° (W) 03:42:17 435.465 / 435.565
BUGSAT 1 25 Jun 03:25:58 03:27:49 13° 302° (WNW) 03:29:39 437.445
KKS-1 25 Jun 03:27:56 03:31:50 31° 65° (ENE) 03:35:46 437.445
YUBILEINY 25 Jun 03:34:28 03:39:43 18° 288° (WNW) 03:44:59 435.215
GONETS M04 25 Jun 03:42:36 03:43:49 10° 37° (NE) 03:45:02
BEESAT 3 25 Jun 03:50:57 03:53:39 18° 114° (ESE) 03:56:22 437.485
AO-7 25 Jun 03:52:06 03:58:09 21° 88° (E) 04:04:09 29.400- 29.500
CUBESAT XI-V 25 Jun 04:07:20 04:08:59 12° 54° (NE) 04:10:38 437.345
STARS 25 Jun 04:11:02 04:15:08 43° 68° (ENE) 04:19:18 437.465
PCSat 25 Jun 04:14:56 04:20:18 70° 122° (ESE) 04:25:44 145.827
Gurwin Techsat 1B 25 Jun 04:15:00 04:20:18 65° 289° (WNW) 04:25:33 435.225
BEESAT 2 25 Jun 04:20:20 04:23:18 20° 115° (ESE) 04:26:16 435.950
SWISSCUBE 25 Jun 04:23:48 04:26:14 14° 273° (W) 04:28:41 437.505
MOZHAYETS 4 25 Jun 04:24:18 04:28:56 88° 72° (ENE) 04:33:37
Cosmos 2499 25 Jun 04:28:45 04:32:51 14° 42° (NE) 04:36:54 435.465 / 435.565
Oscar 19 25 Jun 04:31:39 04:35:45 25° 300° (WNW) 04:39:51 437.125/150
JAS-2 25 Jun 04:38:34 04:41:42 15° 313° (NW) 04:44:40 435.910
ITAMSAT 1 25 Jun 04:44:17 04:49:35 89° 287° (WNW) 04:54:49 435.822/435.867
Cosmos 2491 25 Jun 04:50:32 04:56:13 18° 310° (NW) 05:01:56 435.465 / 435.565
AO-85 25 Jun 04:52:19 04:55:14 15° 12° (NNE) 04:58:00 145.980
O/OREOS (USA 219) 25 Jun 04:56:42 05:01:13 79° 298° (WNW) 05:05:43 437.305
AIST 1 25 Jun 05:02:27 05:06:39 53° 77° (ENE) 05:10:48
KKS-1 25 Jun 05:04:22 05:08:22 33° 263° (W) 05:12:24 437.445
Cosmos 2504 25 Jun 05:22:48 05:25:08 11° 294° (WNW) 05:27:29 435.465 / 435.565
BEESAT 3 25 Jun 05:27:03 05:30:56 61° 312° (NW) 05:34:53 437.485
GONETS M04 25 Jun 05:35:56 05:43:58 39° 66° (ENE) 05:51:58
CUBESAT XI-V 25 Jun 05:40:51 05:45:32 69° 73° (ENE) 05:50:14 437.345
AO-7 25 Jun 05:43:42 05:52:10 84° 110° (ESE) 06:00:33 29.400- 29.500
STARS 25 Jun 05:48:11 05:51:42 23° 267° (W) 05:55:14 437.465
Gurwin Techsat 1B 25 Jun 05:56:53 05:59:17 13° 309° (NW) 06:01:41 435.225
BEESAT 2 25 Jun 05:56:54 06:00:48 55° 314° (NW) 06:04:46 435.950
PCSat 25 Jun 05:59:28 06:04:11 29° 323° (NW) 06:08:56 145.827
MOZHAYETS 4 25 Jun 06:04:46 06:06:47 13° 274° (W) 06:08:48
AIST 2 25 Jun 06:07:00 06:09:37 17° 113° (ESE) 06:12:16 435.215
HORYU 2 25 Jun 06:15:55 06:20:20 53° 101° (E) 06:24:44 437.375
Cosmos 2499 25 Jun 06:20:14 06:28:47 47° 69° (ENE) 06:36:58 435.465 / 435.565
Cubesat XI-IV 25 Jun 06:22:03 06:24:07 12° 85° (E) 06:26:11 437.490
ITAMSAT 1 25 Jun 06:25:02 06:28:21 17° 306° (NW) 06:31:40 435.822/435.867
AO-85 25 Jun 06:32:44 06:37:08 34° 37° (NE) 06:41:11 145.980
BRITE-PL 25 Jun 06:38:06 06:40:55 17° 90° (E) 06:43:43 437.365/2234.400
O/OREOS (USA 219) 25 Jun 06:38:49 06:41:24 15° 319° (NW) 06:44:01 437.305
AIST 1 25 Jun 06:41:04 06:43:49 17° 275° (W) 06:46:34
CUTE-I 25 Jun 06:56:03 07:00:21 24° 92° (E) 07:04:38 437.470
STRAND 1 25 Jun 07:03:01 07:07:50 42° 66° (ENE) 07:12:42 437.568
BEESAT 3 25 Jun 07:06:59 07:09:24 16° 334° (NNW) 07:11:52 437.485
CUBESAT XI-V 25 Jun 07:20:24 07:23:24 17° 271° (W) 07:26:26 437.345
PRISM 25 Jun 07:20:38 07:21:31 11° 55° (NE) 07:22:26 437.425
NOAA 18 25 Jun 07:22:13 07:27:27 41° 98° (E) 07:32:39 137.9125
GOMX 1 25 Jun 07:31:22 07:34:58 27° 95° (E) 07:38:35 467.674
GONETS M04 25 Jun 07:32:45 07:41:14 59° 269° (W) 07:49:44
NOAA 15 25 Jun 07:36:51 07:42:06 66° 103° (ESE) 07:47:19 137.62
BEESAT 2 25 Jun 07:37:09 07:39:30 15° 336° (NNW) 07:41:52 435.950
AO-7 25 Jun 07:37:10 07:44:09 31° 311° (NW) 07:51:07 29.400- 29.500
AIST 2 25 Jun 07:43:31 07:47:38 71° 312° (NW) 07:51:47 435.215
PCSat 25 Jun 07:46:45 07:49:26 14° 348° (NNW) 07:52:06 145.827
HORYU 2 25 Jun 07:53:09 07:56:34 22° 299° (WNW) 07:59:59 437.375
LilacSat-2 25 Jun 07:55:49 07:59:42 81° 104° (ESE) 08:03:35 437.200
Cubesat XI-IV 25 Jun 07:59:42 08:05:08 75° 104° (ESE) 08:10:31 437.490
DANDE 25 Jun 08:03:18 08:09:40 25° 82° (E) 08:15:44 436.750
AO-85 25 Jun 08:13:19 08:17:45 45° 239° (WSW) 08:21:47 145.980
Cosmos 2499 25 Jun 08:13:36 08:22:02 50° 272° (W) 08:30:06 435.465 / 435.565
BRITE-PL 25 Jun 08:15:43 08:19:50 51° 289° (WNW) 08:23:50 437.365/2234.400
CUSAT 1 25 Jun 08:15:52 08:23:16 47° 94° (E) 08:29:38 437.405
CUTE-I 25 Jun 08:35:29 08:40:48 59° 291° (WNW) 08:46:04 437.470
CINEMA 3 25 Jun 08:38:01 08:41:29 22° 92° (E) 08:45:03 145.822/145.860
STRAND 1 25 Jun 08:42:35 08:47:08 31° 265° (W) 08:51:43 437.568
AAUSAT CUBESAT 2 25 Jun 08:50:40 08:51:10 10° 85° (E) 08:51:42 437.432
DOVE 4 25 Jun 08:50:54 08:55:08 82° 105° (ESE) 08:59:32 437.250
PRISM 25 Jun 08:51:56 08:56:06 74° 73° (ENE) 09:00:16 437.425
CANX-2 25 Jun 09:01:14 09:05:12 34° 96° (E) 09:09:07 2200.000
CUBEBUG 2 25 Jun 09:02:12 09:04:29 14° 87° (E) 09:06:47 437.445
NOAA 18 25 Jun 09:03:01 09:08:04 37° 297° (WNW) 09:13:08 137.9125
GOMX 1 25 Jun 09:09:25 09:13:08 32° 293° (WNW) 09:16:55 467.674
ANTELSAT 25 Jun 09:13:42 09:15:22 12° 55° (NE) 09:17:03 437.575/2403.000
HO-68 25 Jun 09:15:12 09:22:08 47° 99° (E) 09:29:01 435.675
NOAA 15 25 Jun 09:17:24 09:21:27 23° 302° (WNW) 09:25:28 137.62
COMPASS 1 25 Jun 09:18:25 09:21:54 24° 93° (E) 09:25:20 437.405
CUTE 1.7 + AOD 2 25 Jun 09:21:52 09:26:04 48° 99° (E) 09:30:13 437.475
AIST 2 25 Jun 09:23:59 09:26:50 18° 333° (NNW) 09:29:43 435.215
LilacSat-2 25 Jun 09:31:52 09:33:27 12° 301° (WNW) 09:35:02 437.200
AO-7 25 Jun 09:31:58 09:34:17 11° 337° (NNW) 09:36:38 29.400- 29.500
PCSat 25 Jun 09:32:22 09:35:15 14° 15° (NNE) 09:38:07 145.827
GONETS M04 25 Jun 09:32:31 09:36:05 13° 292° (WNW) 09:39:39
SEEDS 25 Jun 09:32:59 09:37:07 46° 99° (E) 09:41:11 437.485
M-CUBED/EXP-1 PRIME 25 Jun 09:37:58 09:40:08 14° 98° (E) 09:42:21 437.505
Cubesat XI-IV 25 Jun 09:40:42 09:44:39 21° 303° (WNW) 09:48:37 437.490
DANDE 25 Jun 09:43:17 09:51:45 90° 103° (ESE) 09:59:38 436.750
ZACube-1 25 Jun 09:44:57 09:47:55 17° 89° (E) 09:50:54 437.345
PHONESAT 2.4 25 Jun 09:50:22 09:50:28 10° 162° (SSE) 09:50:34 2401.200-2431.200
UWE-3 25 Jun 09:56:30 10:00:32 31° 95° (E) 10:04:37 435.000/436.395/437.385
CUSAT 1 25 Jun 09:58:03 10:05:26 45° 290° (WNW) 10:11:44 437.405
Oscar 11 25 Jun 10:02:01 10:05:37 24° 93° (E) 10:09:11 145.826/435.025
TIGRISAT 25 Jun 10:03:54 10:07:40 30° 65° (ENE) 10:11:31 435.000
FUNcube-1 25 Jun 10:04:11 10:07:51 24° 93° (E) 10:11:33 145.935
UNISAT 6 25 Jun 10:07:34 10:11:27 34° 66° (ENE) 10:15:26 437.425
Cosmos 2499 25 Jun 10:10:52 10:12:51 11° 295° (WNW) 10:14:50 435.465 / 435.565
CINEMA 3 25 Jun 10:14:37 10:18:51 48° 290° (WNW) 10:23:16 145.822/145.860
CUTE-I 25 Jun 10:17:44 10:19:47 12° 311° (NW) 10:21:51 437.470
AAUSAT CUBESAT 2 25 Jun 10:23:06 10:27:20 88° 114° (ESE) 10:31:30 437.432
BEESAT 3 25 Jun 10:26:02 10:28:10 14° 23° (NNE) 10:30:16 437.485
PRISM 25 Jun 10:29:58 10:31:55 13° 271° (W) 10:33:52 437.425
DOVE 4 25 Jun 10:30:14 10:32:20 14° 302° (WNW) 10:34:26 437.250
AUBIESAT-1 25 Jun 10:35:15 10:38:54 47° 106° (ESE) 10:42:47 437.475
CUBEBUG 2 25 Jun 10:37:07 10:41:39 82° 285° (WNW) 10:46:18 437.445
CANX-2 25 Jun 10:37:16 10:40:58 29° 295° (WNW) 10:44:40 2200.000
ANTELSAT 25 Jun 10:47:01 10:51:20 80° 74° (ENE) 10:55:44 437.575/2403.000
COMPASS 1 25 Jun 10:53:40 10:57:35 38° 292° (WNW) 11:01:28 437.405
BEESAT 2 25 Jun 10:56:14 10:58:34 15° 24° (NNE) 11:00:55 435.950
Cosmos 2491 25 Jun 10:57:18 11:03:47 22° 54° (NE) 11:10:14 435.465 / 435.565
CUTE 1.7 + AOD 2 25 Jun 10:58:21 11:01:38 22° 298° (WNW) 11:04:53 437.475
HO-68 25 Jun 11:03:06 11:09:50 44° 300° (WNW) 11:16:33 435.675
DELFI C3 25 Jun 11:06:27 11:10:23 50° 99° (E) 11:14:16 145.870
SEEDS 25 Jun 11:09:15 11:12:33 22° 297° (WNW) 11:15:49 437.485
NANOSAT C BR1 25 Jun 11:09:19 11:12:50 27° 65° (ENE) 11:16:22 145.865
BUGSAT 1 25 Jun 11:09:53 11:11:49 13° 58° (ENE) 11:13:44 437.445
QB50P1 25 Jun 11:10:00 11:13:36 28° 65° (ENE) 11:17:13 145.935-145.965
M-CUBED/EXP-1 PRIME 25 Jun 11:11:20 11:14:57 59° 293° (WNW) 11:18:51 437.505
POPSAT HIP 1 25 Jun 11:12:47 11:16:26 29° 65° (ENE) 11:20:06 437.405
PCSat 25 Jun 11:15:27 11:20:22 33° 40° (NE) 11:25:16 145.827
ZACube-1 25 Jun 11:20:09 11:24:37 64° 287° (WNW) 11:29:08 437.345
JAS-2 25 Jun 11:23:41 11:29:16 24° 55° (NE) 11:34:30 435.910
QB50P2 25 Jun 11:23:47 11:27:42 39° 68° (ENE) 11:31:39 145.880/145.840
PHONESAT 2.4 25 Jun 11:24:23 11:26:20 15° 179° (S) 11:28:16 2401.200-2431.200
POLYITAN 1 25 Jun 11:26:24 11:30:19 40° 69° (ENE) 11:34:17 437.675
DANDE 25 Jun 11:28:37 11:35:29 27° 300° (WNW) 11:41:54 436.750
HUMSAT D 25 Jun 11:30:15 11:34:26 45° 99° (E) 11:38:34 437.325/437.525
DUCHIFAT 1 25 Jun 11:31:17 11:35:11 40° 68° (ENE) 11:39:06 145.980
UWE-3 25 Jun 11:32:54 11:37:01 35° 293° (WNW) 11:41:12 435.000/436.395/437.385
Oscar 11 25 Jun 11:37:47 11:41:54 41° 292° (WNW) 11:45:59 145.826/435.025
FUNcube-1 25 Jun 11:40:01 11:44:17 44° 291° (WNW) 11:48:36 145.935
TIGRISAT 25 Jun 11:40:27 11:44:19 33° 264° (W) 11:48:18 435.000
UNISAT 6 25 Jun 11:44:28 11:48:13 29° 265° (W) 11:52:03 437.425
O/OREOS (USA 219) 25 Jun 11:45:26 11:47:13 12° 37° (NE) 11:48:59 437.305
ISS 25 Jun 11:47:03 11:50:12 45° 151° (SSE) 11:53:21 145.825
CUSAT 1 25 Jun 11:47:10 11:49:01 11° 310° (NW) 11:50:47 437.405
ESTCUBE 1 25 Jun 11:57:37 12:00:46 18° 90° (E) 12:03:55 437.505/2401.250
AAUSAT CUBESAT 2 25 Jun 12:00:19 12:02:11 13° 303° (WNW) 12:04:02 437.432
BEESAT 3 25 Jun 12:02:54 12:06:46 48° 44° (NE) 12:10:36 437.485
AUBIESAT-1 25 Jun 12:10:26 12:13:11 20° 302° (WNW) 12:16:05 437.475
CUBEBUG 2 25 Jun 12:15:33 12:17:37 13° 303° (WNW) 12:19:41 437.445
AISAT 25 Jun 12:17:09 12:20:15 19° 91° (E) 12:23:20 437.250
Gurwin Techsat 1B 25 Jun 12:26:37 12:27:13 10° 47° (NE) 12:27:49 435.225
ANTELSAT 25 Jun 12:26:49 12:28:41 12° 273° (W) 12:30:34 437.575/2403.000
RS-15 25 Jun 12:32:38 12:42:52 40° 108° (ESE) 12:53:35 29.354- 29.394
BEESAT 2 25 Jun 12:33:19 12:37:16 54° 46° (NE) 12:41:11 435.950
Oscar 19 25 Jun 12:35:17 12:39:10 22° 58° (ENE) 12:43:04 437.125/150
UKube-1 25 Jun 12:37:37 12:40:35 18° 91° (E) 12:43:32 .
DELFI C3 25 Jun 12:42:06 12:44:55 19° 298° (WNW) 12:47:44 145.870
BUGSAT 1 25 Jun 12:42:37 12:46:38 79° 255° (WSW) 12:50:41 437.445
NANOSAT C BR1 25 Jun 12:44:37 12:48:28 35° 263° (W) 12:52:21 145.865
50 SAT 25 Jun 12:44:52 12:48:16 33° 97° (E) 12:51:38 437.505
AIST 2 25 Jun 12:44:54 12:47:15 14° 22° (NNE) 12:49:35 435.215
QB50P1 25 Jun 12:45:30 12:49:18 33° 263° (W) 12:53:09 145.935-145.965
SPROUT 25 Jun 12:46:27 12:49:09 16° 90° (E) 12:51:51 437.525
YUBILEINY 25 Jun 12:47:04 12:54:10 29° 80° (E) 13:01:17 435.215
POPSAT HIP 1 25 Jun 12:48:25 12:52:10 32° 264° (W) 12:55:58 437.405
DX 1 25 Jun 12:49:56 12:53:43 28° 95° (E) 12:57:28 434.975-435.025
HO-68 25 Jun 12:52:54 12:55:49 13° 322° (NW) 12:58:44 435.675
Cosmos 2491 25 Jun 12:53:27 13:02:14 80° 79° (E) 13:10:58 435.465 / 435.565
PCSat 25 Jun 12:58:45 13:04:06 58° 240° (WSW) 13:09:24 145.827
ZACube-1 25 Jun 12:59:20 13:00:04 10° 306° (NW) 13:00:48 437.345
QB50P2 25 Jun 13:00:16 13:03:40 24° 267° (W) 13:07:05 145.880/145.840
PHONESAT 2.4 25 Jun 13:01:10 13:02:14 11° 195° (SSW) 13:03:17 2401.200-2431.200
POLYITAN 1 25 Jun 13:02:56 13:06:17 23° 267° (W) 13:09:41 437.675
JAS-2 25 Jun 13:05:51 13:13:34 86° 73° (ENE) 13:20:36 435.910
HUMSAT D 25 Jun 13:06:23 13:09:49 23° 297° (WNW) 13:13:14 437.325/437.525
DUCHIFAT 1 25 Jun 13:07:42 13:11:02 23° 267° (W) 13:14:24 145.980
AO-7 25 Jun 13:07:57 13:12:24 16° 33° (NNE) 13:16:52 29.400- 29.500
VELOX 1 25 Jun 13:12:16 13:16:39 58° 102° (ESE) 13:20:57 145.980
CUBEBUG 1 25 Jun 13:13:59 13:18:19 67° 103° (ESE) 13:22:36 437.445
O/OREOS (USA 219) 25 Jun 13:23:11 13:27:38 58° 60° (ENE) 13:32:03 437.305
ISS 25 Jun 13:23:21 13:26:36 65° 351° (N) 13:29:52 145.825
ESTCUBE 1 25 Jun 13:33:31 13:37:58 58° 289° (WNW) 13:42:23 437.505/2401.250
BEESAT 3 25 Jun 13:41:02 13:44:13 23° 244° (WSW) 13:47:23 437.485
AISAT 25 Jun 13:52:46 13:57:04 55° 290° (WNW) 14:01:21 437.250
Gurwin Techsat 1B 25 Jun 14:00:53 14:05:59 50° 68° (ENE) 14:11:07 435.225
BEESAT 2 25 Jun 14:11:47 14:14:48 21° 245° (WSW) 14:17:49 435.950
UKube-1 25 Jun 14:12:44 14:16:59 55° 290° (WNW) 14:21:11 .
Oscar 19 25 Jun 14:12:56 14:18:04 66° 258° (WSW) 14:23:12 437.125/150
Cosmos 2504 25 Jun 14:16:11 14:23:08 32° 81° (E) 14:30:27 435.465 / 435.565
50 SAT 25 Jun 14:18:51 14:21:49 23° 295° (WNW) 14:24:46 437.505
TISAT 1 25 Jun 14:19:20 14:23:16 37° 98° (E) 14:27:10 437.305
SPROUT 25 Jun 14:21:17 14:25:30 61° 288° (WNW) 14:29:43 437.525
AIST 2 25 Jun 14:22:40 14:26:43 46° 44° (NE) 14:30:44 435.215
DX 1 25 Jun 14:26:01 14:29:58 35° 294° (WNW) 14:33:54 434.975-435.025
ITAMSAT 1 25 Jun 14:27:56 14:32:38 35° 64° (ENE) 14:37:22 435.822/435.867
SWISSCUBE 25 Jun 14:39:56 14:42:55 16° 89° (E) 14:45:52 437.505
YUBILEINY 25 Jun 14:41:27 14:50:10 74° 282° (WNW) 14:58:59 435.215
RS-15 25 Jun 14:42:53 14:54:29 77° 314° (NW) 15:06:46 29.354- 29.394
VELOX 1 25 Jun 14:49:36 14:52:43 19° 300° (WNW) 14:55:51 145.980
Cosmos 2491 25 Jun 14:51:20 14:58:08 27° 282° (WNW) 15:04:56 435.465 / 435.565
CUBEBUG 1 25 Jun 14:51:22 14:54:08 17° 301° (WNW) 14:56:54 437.445
JAS-2 25 Jun 14:53:26 14:59:15 23° 271° (W) 15:04:46 435.910
AO-7 25 Jun 14:55:23 15:03:10 46° 56° (ENE) 15:10:58 29.400- 29.500
ISS 25 Jun 14:59:59 15:03:16 68° 11° (N) 15:06:32 145.825
O/OREOS (USA 219) 25 Jun 15:03:28 15:06:37 19° 258° (WSW) 15:09:46 437.305
ITUPSAT 1 25 Jun 15:03:39 15:07:31 23° 93° (E) 15:11:21 437.325
BEESAT 25 Jun 15:04:59 15:08:54 24° 93° (E) 15:12:48 436.000
Gurwin Techsat 1B 25 Jun 15:41:40 15:46:11 28° 267° (W) 15:50:44 435.225
HORYU 2 25 Jun 15:44:25 15:46:27 13° 55° (NE) 15:48:31 437.375
TISAT 1 25 Jun 15:55:17 15:58:47 26° 296° (WNW) 16:02:16 437.305
AIST 2 25 Jun 16:01:31 16:05:01 26° 243° (WSW) 16:08:29 435.215
ITAMSAT 1 25 Jun 16:07:13 16:12:04 39° 263° (W) 16:16:58 435.822/435.867
Cosmos 2504 25 Jun 16:07:47 16:15:52 68° 284° (WNW) 16:24:35 435.465 / 435.565
MOZHAYETS 4 25 Jun 16:16:05 16:18:56 16° 88° (E) 16:21:47
SWISSCUBE 25 Jun 16:16:26 16:21:15 74° 288° (WNW) 16:26:02 437.505
ISS 25 Jun 16:36:31 16:39:38 40° 210° (SSW) 16:42:43 145.825
ITUPSAT 1 25 Jun 16:40:57 16:45:38 51° 291° (WNW) 16:50:17 437.325
BEESAT 25 Jun 16:42:18 16:46:56 48° 292° (WNW) 16:51:32 436.000
YUBILEINY 25 Jun 16:42:35 16:48:46 21° 308° (NW) 16:55:00 435.215
CUTE-I 25 Jun 16:46:14 16:48:08 12° 49° (NE) 16:50:02 437.470
AO-7 25 Jun 16:47:44 16:55:51 54° 258° (WSW) 17:04:02 29.400- 29.500
KKS-1 25 Jun 16:50:27 16:54:29 33° 96° (E) 16:58:31 437.445
RS-15 25 Jun 16:58:04 17:09:10 42° 345° (NNW) 17:20:42 29.354- 29.394
SO-50 25 Jun 17:00:56 17:04:52 25° 115° (ESE) 17:08:48 436.795
NOAA 18 25 Jun 17:14:19 17:18:24 22° 56° (NE) 17:22:30 137.9125
HORYU 2 25 Jun 17:17:53 17:22:19 84° 75° (ENE) 17:26:48 437.375
NOAA 15 25 Jun 17:22:47 17:27:13 28° 60° (ENE) 17:31:38 137.62
STARS 25 Jun 17:32:00 17:36:14 44° 99° (E) 17:40:27 437.465
CUBESAT XI-V 25 Jun 17:34:49 17:36:53 13° 86° (E) 17:38:56 437.345
AIST 1 25 Jun 17:36:42 17:40:15 25° 88° (E) 17:43:47
Cubesat XI-IV 25 Jun 17:47:07 17:51:48 32° 62° (ENE) 17:56:30 437.490
MOZHAYETS 4 25 Jun 17:51:58 17:56:37 71° 288° (WNW) 18:01:14
BRITE-PL 25 Jun 17:52:09 17:56:47 38° 68° (ENE) 18:01:07 437.365/2234.400
SWISSCUBE 25 Jun 17:56:06 17:58:15 13° 307° (NW) 18:00:23 437.505
HO-68 25 Jun 18:04:53 18:08:45 16° 42° (NE) 18:12:39 435.675
Cosmos 2504 25 Jun 18:05:41 18:11:16 19° 310° (NW) 18:17:05 435.465 / 435.565
CUTE-I 25 Jun 18:21:53 18:27:07 58° 69° (ENE) 18:32:24 437.470
DOVE 4 25 Jun 18:24:54 18:27:45 17° 61° (ENE) 18:30:32 437.250
KKS-1 25 Jun 18:27:06 18:31:02 32° 295° (WNW) 18:34:58 437.445
DANDE 25 Jun 18:39:01 18:42:53 17° 51° (NE) 18:46:09 436.750
SO-50 25 Jun 18:40:09 18:45:01 63° 314° (NW) 18:49:52 436.795
LilacSat-2 25 Jun 18:41:43 18:45:29 73° 73° (ENE) 18:49:17 437.200
GONETS M04 25 Jun 18:43:15 18:50:54 36° 83° (E) 18:58:32
GOMX 1 25 Jun 18:43:23 18:47:52 51° 71° (ENE) 18:52:07 467.674
CUSAT 1 25 Jun 18:48:13 18:52:08 28° 64° (ENE) 18:55:15 437.405
AO-7 25 Jun 18:48:32 18:50:41 11° 280° (W) 18:52:49 29.400- 29.500
NOAA 18 25 Jun 18:53:03 18:58:31 75° 255° (WSW) 19:04:03 137.9125
HORYU 2 25 Jun 18:57:37 18:59:30 12° 273° (W) 19:01:25 437.375
NOAA 15 25 Jun 19:01:33 19:06:43 53° 260° (W) 19:11:55 137.62
Cosmos 2499 25 Jun 19:02:25 19:09:30 32° 81° (E) 19:16:57 435.465 / 435.565
STARS 25 Jun 19:08:51 19:12:22 24° 298° (WNW) 19:15:54 437.465
CUBESAT XI-V 25 Jun 19:10:15 19:14:56 87° 289° (WNW) 19:19:34 437.345
AIST 1 25 Jun 19:13:41 19:17:42 36° 287° (WNW) 19:21:42
RS-15 25 Jun 19:13:50 19:25:18 44° 19° (NNE) 19:36:59 29.354- 29.394
Cubesat XI-IV 25 Jun 19:26:35 19:31:42 46° 261° (W) 19:36:54 437.490
BRITE-PL 25 Jun 19:30:47 19:35:19 32° 264° (W) 19:39:36 437.365/2234.400
MOZHAYETS 4 25 Jun 19:31:17 19:32:58 12° 306° (NW) 19:34:39
CINEMA 3 25 Jun 19:44:07 19:47:45 30° 66° (ENE) 19:51:25 145.822/145.860
AAUSAT CUBESAT 2 25 Jun 19:44:14 19:46:23 14° 58° (ENE) 19:48:34 437.432
HO-68 25 Jun 19:48:06 19:55:01 55° 64° (ENE) 20:01:59 435.675
AUBIESAT-1 25 Jun 19:53:39 19:55:14 13° 54° (NE) 19:56:49 437.475
CANX-2 25 Jun 19:57:53 20:01:56 42° 69° (ENE) 20:06:01 2200.000
DOVE 4 25 Jun 20:00:48 20:05:06 60° 259° (W) 20:09:17 437.250
CUTE-I 25 Jun 20:03:14 20:07:32 24° 268° (W) 20:11:52 437.470
CUBEBUG 2 25 Jun 20:04:38 20:07:28 18° 60° (ENE) 20:10:22 437.445
COMPASS 1 25 Jun 20:13:09 20:16:49 29° 66° (ENE) 20:20:30 437.405
CUTE 1.7 + AOD 2 25 Jun 20:18:22 20:22:34 59° 72° (ENE) 20:26:50 437.475
LilacSat-2 25 Jun 20:19:12 20:20:17 11° 273° (W) 20:21:23 437.200
DANDE 25 Jun 20:21:00 20:26:59 85° 260° (W) 20:31:20 436.750
GOMX 1 25 Jun 20:22:47 20:26:14 20° 268° (W) 20:29:33 467.674
SO-50 25 Jun 20:22:47 20:26:25 20° 336° (NNW) 20:30:00 436.795
M-CUBED/EXP-1 PRIME 25 Jun 20:28:25 20:31:24 33° 63° (ENE) 20:34:25 437.505
SEEDS 25 Jun 20:28:31 20:32:40 55° 72° (ENE) 20:36:52 437.485
CUSAT 1 25 Jun 20:30:34 20:34:06 24° 274° (W) 20:36:58 437.405
NOAA 18 25 Jun 20:38:00 20:40:09 12° 275° (W) 20:42:18 137.9125
GONETS M04 25 Jun 20:38:43 20:47:18 61° 286° (WNW) 20:55:56
ZACube-1 25 Jun 20:45:03 20:48:17 22° 62° (ENE) 20:51:35 437.345
STRAND 1 25 Jun 20:47:43 20:52:53 65° 102° (ESE) 20:58:00 437.568
CUBESAT XI-V 25 Jun 20:49:15 20:51:38 14° 304° (NW) 20:54:00 437.345
Cosmos 2499 25 Jun 20:53:40 21:01:58 69° 284° (WNW) 21:10:49 435.465 / 435.565
UWE-3 25 Jun 20:57:45 21:01:38 39° 68° (ENE) 21:05:38 435.000/436.395/437.385
Oscar 11 25 Jun 21:00:43 21:04:34 32° 66° (ENE) 21:08:29 145.826/435.025
FUNcube-1 25 Jun 21:03:55 21:07:37 30° 65° (ENE) 21:11:22 145.935
AAUSAT CUBESAT 2 25 Jun 21:17:06 21:21:18 81° 256° (WSW) 21:25:32 437.432
CINEMA 3 25 Jun 21:21:15 21:24:54 29° 265° (W) 21:28:35 145.822/145.860
AUBIESAT-1 25 Jun 21:26:06 21:29:21 58° 252° (WSW) 21:32:40 437.475
RS-15 25 Jun 21:27:24 21:39:47 82° 49° (NE) 21:52:10 29.354- 29.394
CANX-2 25 Jun 21:34:33 21:37:58 23° 268° (W) 21:41:26 2200.000
HO-68 25 Jun 21:36:29 21:43:00 37° 264° (W) 21:49:35 435.675
CUBEBUG 2 25 Jun 21:39:36 21:43:42 57° 259° (W) 21:47:55 437.445
COMPASS 1 25 Jun 21:48:31 21:52:19 32° 264° (W) 21:56:10 437.405
CUTE 1.7 + AOD 2 25 Jun 21:56:02 21:58:49 17° 271° (W) 22:01:36 437.475
DELFI C3 25 Jun 21:56:11 22:00:07 53° 71° (ENE) 22:04:05 145.870
M-CUBED/EXP-1 PRIME 25 Jun 22:03:53 22:06:09 17° 261° (W) 22:08:26 437.505
PRISM 25 Jun 22:04:24 22:08:30 64° 102° (ESE) 22:12:33 437.425
SEEDS 25 Jun 22:05:51 22:08:43 18° 270° (W) 22:11:37 437.485
SO-50 25 Jun 22:06:18 22:08:42 13° 1° (N) 22:11:03 436.795
DANDE 25 Jun 22:06:22 22:08:16 12° 287° (WNW) 22:10:00 436.750
ZACube-1 25 Jun 22:20:15 22:24:18 46° 261° (W) 22:28:28 437.345
HUMSAT D 25 Jun 22:25:27 22:29:30 53° 71° (ENE) 22:33:39 437.325/437.525
STRAND 1 25 Jun 22:27:40 22:31:38 23° 302° (WNW) 22:35:34 437.568
AO-85 25 Jun 22:31:08 22:35:28 25° 114° (ESE) 22:39:42 145.980
UWE-3 25 Jun 22:34:51 22:38:16 24° 267° (W) 22:41:45 435.000/436.395/437.385
ANTELSAT 25 Jun 22:35:37 22:37:54 13° 87° (E) 22:40:12 437.575/2403.000
Oscar 11 25 Jun 22:36:51 22:40:43 31° 265° (W) 22:44:37 145.826/435.025
VELOX 1 25 Jun 22:39:58 22:42:06 13° 56° (NE) 22:44:15 145.980
FUNcube-1 25 Jun 22:40:02 22:43:49 32° 265° (W) 22:47:41 145.935
CUBEBUG 1 25 Jun 22:40:18 22:42:32 14° 57° (ENE) 22:44:45 437.445
GONETS M04 25 Jun 22:41:09 22:46:21 17° 312° (NW) 22:51:35
YUBILEINY 25 Jun 22:50:09 22:56:17 20° 52° (NE) 23:02:25 435.215
Cosmos 2499 25 Jun 22:51:10 22:57:03 20° 309° (NW) 23:03:08 435.465 / 435.565
ESTCUBE 1 25 Jun 23:00:58 23:04:52 29° 64° (ENE) 23:08:47 437.505/2401.250
AISAT 25 Jun 23:18:23 23:22:10 29° 64° (ENE) 23:25:58 437.250
TIGRISAT 25 Jun 23:26:45 23:31:03 37° 97° (E) 23:35:22 435.000
50 SAT 25 Jun 23:26:50 23:30:06 30° 67° (ENE) 23:33:25 437.505
UNISAT 6 25 Jun 23:30:44 23:35:08 42° 98° (E) 23:39:34 437.425
DELFI C3 25 Jun 23:32:39 23:35:18 17° 270° (W) 23:37:58 145.870
UKube-1 25 Jun 23:35:58 23:39:37 27° 64° (ENE) 23:43:17 .
RS-15 25 Jun 23:40:33 23:51:16 38° 254° (WSW) 00:01:57 29.354- 29.394
PRISM 25 Jun 23:40:49 23:43:22 16° 301° (WNW) 23:45:54 437.425
SPROUT 25 Jun 23:44:01 23:47:19 22° 63° (ENE) 23:50:38 437.525
SO-50 25 Jun 23:47:17 23:50:56 21° 25° (NNE) 23:54:30 436.795
DX 1 25 Jun 23:49:19 23:53:25 43° 68° (ENE) 23:57:33 434.975-435.025
Cosmos 2504 26 Jun 00:02:19 00:08:14 19° 50° (NE) 00:14:06 435.465 / 435.565
HUMSAT D 26 Jun 00:02:36 00:05:29 18° 270° (W) 00:08:22 437.325/437.525
Cosmos 2491 26 Jun 00:07:08 00:12:47 19° 74° (ENE) 00:18:25 435.465 / 435.565
AO-85 26 Jun 00:10:14 00:15:37 70° 312° (NW) 00:20:46 145.980
ANTELSAT 26 Jun 00:10:35 00:15:12 84° 285° (WNW) 00:19:53 437.575/2403.000
VELOX 1 26 Jun 00:13:29 00:17:55 88° 75° (ENE) 00:22:22 145.980
CUBEBUG 1 26 Jun 00:13:50 00:18:12 87° 255° (WSW) 00:22:35 437.445
BUGSAT 1 26 Jun 00:22:14 00:23:18 11° 87° (E) 00:24:23 437.445
NANOSAT C BR1 26 Jun 00:24:30 00:28:05 26° 94° (E) 00:31:39 145.865
QB50P1 26 Jun 00:25:35 00:29:16 28° 95° (E) 00:32:56 145.935-145.965
POPSAT HIP 1 26 Jun 00:28:26 00:32:11 29° 95° (E) 00:35:55 437.405
ESTCUBE 1 26 Jun 00:37:20 00:41:34 38° 263° (W) 00:45:50 437.505/2401.250
QB50P2 26 Jun 00:39:46 00:43:48 40° 98° (E) 00:47:50 145.880/145.840
POLYITAN 1 26 Jun 00:42:23 00:46:26 41° 98° (E) 00:50:29 437.675
YUBILEINY 26 Jun 00:46:06 00:54:58 72° 77° (ENE) 01:03:47 435.215
DUCHIFAT 1 26 Jun 00:46:21 00:50:22 40° 98° (E) 00:54:21 145.980
AISAT 26 Jun 00:54:29 00:58:33 36° 263° (W) 01:02:39 437.250
50 SAT 26 Jun 01:00:42 01:03:49 25° 265° (W) 01:06:57 437.505
TIGRISAT 26 Jun 01:03:37 01:07:39 31° 295° (WNW) 01:11:43 435.000
UNISAT 6 26 Jun 01:07:48 01:11:41 27° 296° (WNW) 01:15:36 437.425
UKube-1 26 Jun 01:11:32 01:15:33 37° 262° (W) 01:19:35 .
TISAT 1 26 Jun 01:14:55 01:18:56 49° 70° (ENE) 01:22:58 437.305
SPROUT 26 Jun 01:18:57 01:23:02 45° 261° (W) 01:27:09 437.525
DX 1 26 Jun 01:26:18 01:29:47 23° 266° (W) 01:33:19 434.975-435.025
SO-50 26 Jun 01:27:29 01:32:14 73° 48° (NE) 01:36:49 436.795
ANTELSAT 26 Jun 01:48:57 01:51:14 14° 304° (NW) 01:53:33 437.575/2403.000
SWISSCUBE 26 Jun 01:50:03 01:54:14 31° 63° (ENE) 01:58:27 437.505
AO-85 26 Jun 01:52:51 01:56:58 22° 334° (NNW) 02:00:54 145.980
VELOX 1 26 Jun 01:53:26 01:55:02 12° 273° (W) 01:56:38 145.980
CUBEBUG 1 26 Jun 01:54:11 01:55:11 11° 274° (W) 01:56:10 437.445
Cosmos 2504 26 Jun 01:54:46 02:03:41 65° 75° (ENE) 02:12:19 435.465 / 435.565
BUGSAT 1 26 Jun 01:55:11 01:59:16 84° 284° (WNW) 02:03:22 437.445
JAS-2 26 Jun 01:56:54 02:02:39 49° 98° (E) 02:07:51 435.910
Cosmos 2491 26 Jun 01:59:25 02:08:10 79° 96° (E) 02:16:56 435.465 / 435.565
NANOSAT C BR1 26 Jun 02:00:01 02:03:54 36° 293° (WNW) 02:07:48 145.865
QB50P1 26 Jun 02:01:14 02:05:06 34° 293° (WNW) 02:08:56 145.935-145.965
POPSAT HIP 1 26 Jun 02:04:11 02:07:59 33° 294° (WNW) 02:11:48 437.405
Gurwin Techsat 1B 26 Jun 02:14:06 02:16:46 14° 86° (E) 02:19:24 435.225
ITUPSAT 1 26 Jun 02:14:15 02:18:47 44° 67° (ENE) 02:23:22 437.325
BEESAT 26 Jun 02:15:15 02:19:48 45° 68° (ENE) 02:24:23 436.000
QB50P2 26 Jun 02:15:57 02:19:26 25° 296° (WNW) 02:22:55 145.880/145.840
POLYITAN 1 26 Jun 02:18:35 02:22:03 24° 296° (WNW) 02:25:30 437.675
Oscar 19 26 Jun 02:20:13 02:24:46 31° 95° (E) 02:29:18 437.125/150
DUCHIFAT 1 26 Jun 02:22:26 02:25:53 25° 296° (WNW) 02:29:20 145.980
YUBILEINY 26 Jun 02:43:43 02:51:03 31° 279° (W) 02:58:24 435.215
TISAT 1 26 Jun 02:51:52 02:54:52 19° 268° (W) 02:57:53 437.305
STARS 26 Jun 03:00:24 03:01:20 11° 53° (NE) 03:02:16 437.465
